This is the latest recevied weather packets stored in our database for station/object DB7GV-8. If no packets are shown the sender has not sent any weather packets the latest 10 day(s).
| Time | Temp. | Humidity | Pressure | Rain* | Wind** | Luminosity | Snow |
|---|---|---|---|---|---|---|---|
| 1777700441 | 7.78° C | 72% | 1024 hPa | - | - | - | - |
| 1777699536 | 7.22° C | 73% | 1024 hPa | - | - | - | - |
| 1777698631 | 6.67° C | 74% | 1024 hPa | - | - | - | - |
| 1777697725 | 6.11° C | 75% | 1023.9 hPa | - | - | - | - |
| 1777696820 | 5.56° C | 75% | 1023.8 hPa | - | - | - | - |
| 1777695914 | 5.56° C | 75% | 1023.8 hPa | - | - | - | - |
| 1777695009 | 5.56° C | 74% | 1023.8 hPa | - | - | - | - |
| 1777694104 | 5.56° C | 74% | 1023.7 hPa | - | - | - | - |
| 1777693198 | 5.56° C | 74% | 1023.7 hPa | - | - | - | - |
| 1777692293 | 5.56° C | 73% | 1023.7 hPa | - | - | - | - |
| 1777691388 | 6.11° C | 72% | 1023.7 hPa | - | - | - | - |
| 1777690482 | 6.11° C | 72% | 1023.7 hPa | - | - | - | - |
| 1777688671 | 6.67° C | 71% | 1023.7 hPa | - | - | - | - |
| 1777687766 | 6.67° C | 70% | 1023.8 hPa | - | - | - | - |
| 1777674185 | 8.89° C | 62% | 1024 hPa | - | - | - | - |
| 1777673279 | 9.44° C | 60% | 1023.9 hPa | - | - | - | - |
| 1777671468 | 10° C | 59% | 1023.8 hPa | - | - | - | - |
| 1777670563 | 10° C | 59% | 1023.9 hPa | - | - | - | - |
| 1777669657 | 10.56° C | 58% | 1023.9 hPa | - | - | - | - |
| 1777668752 | 10.56° C | 58% | 1023.9 hPa | - | - | - | - |
| 1777667847 | 11.11° C | 56% | 1023.9 hPa | - | - | - | - |
| 1777666941 | 11.67° C | 56% | 1023.9 hPa | - | - | - | - |
| 1777666036 | 12.22° C | 55% | 1023.8 hPa | - | - | - | - |
| 1777665131 | 12.22° C | 54% | 1023.6 hPa | - | - | - | - |
| 1777664225 | 12.78° C | 53% | 1023.4 hPa | - | - | - | - |
* Rain since midnight (hover to see other rain measurements)
** Current wind speed in m/s (hover to see current wind gust speed)